Chillicothe, MO

4:07 PM CDT on June 28, 2017 (GMT -0500)
Chillicothe

Weather History for KCDJ - February, 2013

Change the Weather History Date:

Friday, February 15, 2013

  Actual Average (KIRK) Record (KIRK)
Temperature  
Mean Temperature 26 °F -  
Max Temperature 34 °F 36 °F 73 °F (1921)
Min Temperature 19 °F 21 °F -11 °F (1936)
Degree Days  
Heating Degree Days 38    
Moisture  
Dew Point 13 °F    
Average Humidity 56    
Maximum Humidity 81    
Minimum Humidity 35    
Precipitation  
Precipitation 0.00 in - - ()
Sea Level Pressure  
Sea Level Pressure 30.35 in    
Wind  
Wind Speed 8 mph (NW)    
Max Wind Speed 13 mph    
Max Gust Speed 23 mph    
Averages and records for this station are not official NWS values.
T = Trace of Precipitation, MM = Missing Value Source: NWS Daily Summary

Daily Weather History Graph

Daily Weather History Graph

Search for Another Location

Airport or City:

Trip Planner

Search our weather history database for the weather conditions in past years. The results will help you decide how hot, cold, wet, or windy it might be!

Date:

Astronomy

Feb. 15, 2013 Rise Set
Actual Time 7:06 AM CST 5:50 PM CST
Civil Twilight 6:38 AM CST 6:18 PM CST
Nautical Twilight 6:07 AM CST 6:50 PM CST
Astronomical Twilight 5:35 AM CST 7:21 PM CST
Moon 9:43 AM CST (2/15) 11:51 PM CST (2/15)
Length of Visible Light 11h 39m
Length of Day
10h 44m
Waxing Crescent, 30% of the Moon is Illuminated
Feb 15
Waxing Crescent
Feb 17
First Quarter
Feb 25
Full
Mar 4
Last Quarter
Mar 11
New

Hourly Weather History & Observations

Time (CST) Temp. Windchill Dew Point Humidity Pressure Visibility Wind Dir Wind Speed Gust Speed Precip Events Conditions
12:52 AM 33.1 °F 26.1 °F 19.0 °F 56% 30.21 in - NNW 8.1 mph 19.6 mph N/A   Unknown
1:52 AM 30.9 °F 22.2 °F 17.1 °F 57% 30.24 in - NNW 10.4 mph 18.4 mph N/A   Unknown
2:52 AM 28.9 °F 19.8 °F 16.0 °F 58% 30.27 in - NNW 10.4 mph - N/A   Unknown
3:52 AM 27.0 °F 16.7 °F 14.0 °F 58% 30.29 in - NNW 11.5 mph - N/A   Unknown
4:52 AM 26.1 °F 18.4 °F 12.9 °F 58% 30.32 in - NNW 6.9 mph - N/A   Unknown
5:52 AM 24.1 °F 15.2 °F 10.9 °F 57% 30.35 in - NNW 8.1 mph - N/A   Unknown
6:52 AM 21.9 °F 15.7 °F 12.0 °F 66% 30.37 in - NW 4.6 mph - N/A   Unknown
7:52 AM 23.0 °F 13.9 °F 12.9 °F 65% 30.39 in - NW 8.1 mph - N/A   Unknown
8:52 AM 25.0 °F 15.5 °F 10.9 °F 55% 30.40 in - NW 9.2 mph - N/A   Unknown
9:52 AM 28.0 °F 20.8 °F 10.9 °F 49% 30.41 in - Variable 6.9 mph - N/A   Unknown
10:52 AM 30.9 °F 23.5 °F 10.9 °F 43% 30.39 in - NW 8.1 mph - N/A   Unknown
11:52 AM 33.1 °F 26.1 °F 9.0 °F 37% 30.38 in - West 8.1 mph 16.1 mph N/A   Unknown
12:52 PM 34.0 °F 25.0 °F 9.0 °F 35% 30.35 in - NW 12.7 mph 21.9 mph N/A   Unknown
1:52 PM 33.1 °F 24.4 °F 14.0 °F 46% 30.35 in - West 11.5 mph 23.0 mph N/A   Unknown
2:52 PM 34.0 °F 26.6 °F 12.9 °F 42% 30.35 in - NNW 9.2 mph 19.6 mph N/A   Unknown
3:52 PM 33.1 °F 24.9 °F 12.9 °F 43% 30.35 in - NW 10.4 mph - N/A   Unknown
4:52 PM 30.9 °F 22.8 °F 12.0 °F 46% 30.37 in - NW 9.2 mph 19.6 mph N/A   Unknown
5:52 PM 30.0 °F 22.4 °F 12.0 °F 47% 30.36 in - NW 8.1 mph - N/A   Unknown
6:52 PM 27.0 °F - 12.9 °F 56% 30.37 in - Calm Calm - N/A   Unknown
7:52 PM 24.1 °F - 15.1 °F 69% 30.38 in - Calm Calm - N/A   Unknown
8:52 PM 23.0 °F - 14.0 °F 68% 30.38 in - Calm Calm - N/A   Unknown
9:52 PM 19.9 °F - 15.1 °F 81% 30.38 in - Calm Calm - N/A   Unknown
10:52 PM 21.0 °F - 15.1 °F 78% 30.37 in - Calm Calm - N/A   Unknown
11:52 PM 19.9 °F - 15.1 °F 81% 30.36 in - Calm Calm - N/A   Unknown